EW4431 Weather Reports


Display with metric or nautical units.
time (UTC)temp
F
wind
direction
speed
MPH
gust
MPH
rain 1hr
in
rain 24hr
in
rain mn
in
humidity
%
barometer
mb
20260509041552 89 256 0.0 2.0 0.00 0.00 0.00 17 1005.0
20260509040051 90 278 1.0 4.0 0.00 0.00 0.00 16 1004.7
20260509034548 90 255 1.0 5.0 0.00 0.00 0.00 15 1004.5
20260509033048 89 284 0.0 2.0 0.00 0.00 0.00 15 1004.2
20260509031549 91 241 0.0 3.0 0.00 0.00 0.00 15 1004.1
20260509030045 92 256 0.0 4.0 0.00 0.00 0.00 14 1004.0
20260509024544 92 276 1.0 3.0 0.00 0.00 0.00 14 1003.8
20260509023055 93 224 0.0 5.0 0.00 0.00 0.00 13 1003.7
20260509021543 94 278 1.0 12.0 0.00 0.00 0.00 12 1003.5
20260509020017 95 272 2.0 7.0 0.00 0.00 0.00 12 1003.5
20260509014511 97 280 2.0 7.0 0.00 0.00 0.00 12 1003.4
20260509013011 97 274 2.0 7.0 0.00 0.00 0.00 12 1003.3
20260509011507 98 285 1.0 10.0 0.00 0.00 0.00 13 1003.4
20260509010005 98 276 3.0 9.0 0.00 0.00 0.00 12 1003.5
20260509004512 98 305 2.0 10.0 0.00 0.00 0.00 13 1003.6
20260509003003 99 250 1.0 11.0 0.00 0.00 0.00 14 1003.8
20260509001504 99 319 2.0 6.0 0.00 0.00 0.00 12 1003.9
20260509000110 100 278 1.0 7.0 0.00 0.00 0.00 13 1004.0
20260508234559 100 316 2.0 7.0 0.00 0.00 0.00 12 1004.1
20260508233024 99 288 1.0 8.0 0.00 0.00 0.00 13 1004.2
20260508231522 98 277 3.0 11.0 0.00 0.00 0.00 12 1004.5
20260508224548 99 274 2.0 11.0 0.00 0.00 0.00 13 1004.6
20260508223043 98 296 4.0 10.0 0.00 0.00 0.00 12 1004.8
20260508221541 98 259 2.0 10.0 0.00 0.00 0.00 13 1005.1
20260508220037 97 293 3.0 9.0 0.00 0.00 0.00 15 1005.4
20260508214535 97 273 3.0 9.0 0.00 0.00 0.00 14 1005.8
20260508213031 96 279 2.0 9.0 0.00 0.00 0.00 14 1006.1
20260508211528 96 241 2.0 8.0 0.00 0.00 0.00 14 1006.4
20260508210022 95 322 2.0 9.0 0.00 0.00 0.00 15 1006.7
20260508204518 94 281 2.0 7.0 0.00 0.00 0.00 15 1006.9
20260508203017 94 275 1.0 5.0 0.00 0.00 0.00 15 1007.1
20260508201544 93 107 2.0 8.0 0.00 0.00 0.00 16 1007.2
20260508200041 93 280 2.0 8.0 0.00 0.00 0.00 15 1007.6
20260508194604 93 111 1.0 4.0 0.00 0.00 0.00 17 1007.8
20260508193033 91 274 1.0 7.0 0.00 0.00 0.00 17 1008.1
20260508191530 91 285 2.0 6.0 0.00 0.00 0.00 16 1008.3
20260508190026 92 212 0.0 3.0 0.00 0.00 0.00 18 1008.6
20260508184553 90 282 1.0 6.0 0.00 0.00 0.00 19 1008.7
20260508183051 90 130 0.0 4.0 0.00 0.00 0.00 20 1008.9
20260508181526 89 120 2.0 5.0 0.00 0.00 0.00 19 1009.1
20260508180014 88 277 2.0 6.0 0.00 0.00 0.00 20 1009.2
20260508174511 87 99 2.0 7.0 0.00 0.00 0.00 18 1009.4
20260508173023 86 288 0.0 4.0 0.00 0.00 0.00 21 1009.6
20260508171522 86 165 1.0 4.0 0.00 0.00 0.00 19 1009.7
20260508170010 85 274 1.0 5.0 0.00 0.00 0.00 20 1009.8
20260508164510 84 96 1.0 4.0 0.00 0.00 0.00 22 1009.9
20260508163012 83 136 2.0 5.0 0.00 0.00 0.00 21 1009.9
20260508161507 84 150 1.0 3.0 0.00 0.00 0.00 21 1009.9
20260508160006 82 173 1.0 5.0 0.00 0.00 0.00 22 1009.9
20260508154505 81 100 2.0 5.0 0.00 0.00 0.00 24 1009.8
20260508153004 81 142 3.0 7.0 0.00 0.00 0.00 23 1009.9
20260508151503 79 129 0.0 5.0 0.00 0.00 0.00 26 1009.9
20260508150005 78 145 1.0 7.0 0.00 0.00 0.00 25 1010.0
20260508144600 77 48 2.0 6.0 0.00 0.00 0.00 26 1010.1
20260508144500 77 116 3.0 6.0 0.00 0.00 0.00 26 1010.1
20260508143101 76 133 1.0 4.0 0.00 0.00 0.00 29 1010.0
20260508141601 76 101 1.0 3.0 0.00 0.00 0.00 29 1009.9
20260508140058 74 116 0.0 1.0 0.00 0.00 0.00 33 1009.9
20260508134527 73 116 0.0 1.0 0.00 0.00 0.00 33 1009.6
20260508133031 71 117 0.0 1.0 0.00 0.00 0.00 34 1009.3
20260508131522 0 0.0 0.0 0.00 0.00 0.00 1009.3
20260508130021 0 0.0 0.0 0.00 0.00 0.00 1008.9
20260508124513 0 0.0 0.0 0.00 0.00 0.00 1008.7
20260508123009 0 0.0 0.0 0.00 0.00 0.00 1008.5
20260508121538 0 0.0 0.0 0.00 0.00 0.00 1008.4
20260508120030 0 0.0 0.0 0.00 0.00 0.00 1008.4
20260508114524 0 0.0 0.0 0.00 0.00 0.00 1008.4
20260508113021 0 0.0 0.0 0.00 0.00 0.00 1008.3
20260508111517 70 141 0.0 5.0 0.00 0.00 0.00 31 1008.3
20260508110017 71 130 1.0 3.0 0.00 0.00 0.00 31 1008.3
20260508104514 72 125 1.0 4.0 0.00 0.00 0.00 30 1008.3
20260508103017 72 115 1.0 4.0 0.00 0.00 0.00 30 1008.2
20260508101510 72 130 1.0 6.0 0.00 0.00 0.00 29 1008.1
20260508100009 73 136 2.0 5.0 0.00 0.00 0.00 29 1008.0
20260508094542 73 126 3.0 7.0 0.00 0.00 0.00 28 1007.9
20260508093039 73 143 3.0 7.0 0.00 0.00 0.00 27 1008.0
20260508091507 73 96 2.0 6.0 0.00 0.00 0.00 26 1008.0
20260508090006 73 168 3.0 6.0 0.00 0.00 0.00 24 1008.0
20260508084502 72 80 3.0 6.0 0.00 0.00 0.00 21 1008.2
20260508083103 72 153 1.0 5.0 0.00 0.00 0.00 20 1008.2
20260508081634 72 75 2.0 5.0 0.00 0.00 0.00 21 1008.3
20260508080059 73 88 1.0 2.0 0.00 0.00 0.00 21 1008.2
20260508074558 73 132 0.0 3.0 0.00 0.00 0.00 21 1008.2
20260508073056 72 105 0.0 1.0 0.00 0.00 0.00 23 1008.1
20260508071557 73 105 0.0 1.0 0.00 0.00 0.00 23 1007.9
20260508064554 73 124 0.0 1.0 0.00 0.00 0.00 25 1007.8
20260508063024 73 110 0.0 1.0 0.00 0.00 0.00 25 1007.9
20260508061525 72 245 0.0 0.0 0.00 0.00 0.00 27 1007.9
20260508060019 72 245 0.0 0.0 0.00 0.00 0.00 27 1007.9
20260508054520 72 245 0.0 0.0 0.00 0.00 0.00 26 1007.9
20260508053015 72 245 0.0 0.0 0.00 0.00 0.00 25 1007.7
20260508051521 73 245 0.0 0.0 0.00 0.00 0.00 22 1007.6
20260508050010 74 245 0.0 0.0 0.00 0.00 0.00 21 1007.5
20260508044505 75 245 0.0 0.0 0.00 0.00 0.00 20 1007.5
20260508043002 77 245 0.0 0.0 0.00 0.00 0.00 18 1007.3